Theta_e
311 311 311 311 311 310 310 310 310 311 312 313 313 314 315 316 316 315 314 314 315 315 314 313 313 312 310 310 309 307 304 301 299 297 296 295 294 293 294 295 294 293
310 311 311 310 311 310 310 310 310 310 311 313 313 312 314 315 315 315 315 315 314 313 313 313 314 314 312 311 310 308 305 302 299 298 296 296 294 293 295 296 295 294
310 310 310 310 310 310 310 310 310 310 310 311 312 312 312 314 315 315 315 314 313 312 312 312 313 315 313 312 311 308 305 303 302 300 298 296 294 294 297 297 295 295
310 310 310 310 310 309 310 310 309 310 310 311 311 311 311 313 316 316 314 313 312 311 312 312 312 313 312 311 310 308 305 304 303 302 299 297 294 296 300 298 294 295
310 310 309 309 309 309 309 310 309 309 310 311 311 311 311 312 315 316 314 312 311 310 311 311 312 312 312 311 309 308 305 303 303 301 299 297 296 298 301 298 293 294
309 309 309 308 308 308 309 309 309 309 309 311 311 311 310 312 314 315 313 312 311 310 310 310 310 311 310 310 309 308 306 304 303 301 299 298 298 299 300 297 294 294
309 308 308 308 307 308 308 308 308 309 309 310 310 310 310 311 312 312 312 312 311 310 309 309 309 309 309 309 309 309 307 305 303 302 300 300 299 298 297 296 295 295
309 308 308 307 307 307 307 307 308 308 309 309 309 310 310 310 311 311 311 311 310 309 308 308 307 308 309 309 309 309 307 305 303 302 300 299 298 297 296 296 296 297
308 308 307 307 307 307 307 307 307 307 307 308 309 309 310 310 311 311 311 310 308 308 308 307 307 307 308 308 308 309 308 305 303 302 300 298 297 296 296 296 296 297
308 307 307 306 306 306 306 306 306 306 306 307 307 308 309 310 310 309 308 308 307 307 307 306 306 306 307 307 308 309 308 306 303 301 300 298 297 296 296 296 297 297
307 307 306 306 306 305 306 306 306 306 306 306 307 307 308 308 308 307 306 306 306 307 307 306 306 306 306 306 307 308 307 306 304 302 300 299 298 297 296 296 296 296
307 307 306 306 305 305 305 305 305 306 305 306 306 307 307 306 306 305 305 305 306 306 306 307 306 305 305 306 306 306 305 304 303 302 300 299 298 297 297 296 296 296
307 307 306 306 305 305 305 305 305 305 305 305 305 306 306 305 305 304 304 304 305 305 305 305 305 304 304 305 305 304 303 303 302 300 299 298 297 297 297 297 297 296
307 306 306 305 305 305 304 304 304 304 305 305 305 304 304 304 304 304 304 304 304 304 304 303 302 302 302 303 303 303 302 301 301 300 299 298 297 297 296 296 296 296
307 306 305 305 305 304 304 304 304 304 304 304 304 304 303 303 303 304 303 303 303 303 302 301 300 300 301 301 301 302 301 300 299 299 298 297 297 296 295 295 295 295
306 305 304 304 304 304 304 304 303 303 303 303 303 303 302 302 302 302 302 302 302 301 300 299 299 299 300 301 301 301 300 300 299 298 297 296 296 295 294 293 293 293
305 305 304 303 304 304 304 303 303 302 302 302 302 302 302 301 300 300 300 301 300 300 299 298 298 298 299 300 300 300 300 299 298 297 296 295 294 294 293 293 292 292
305 304 303 303 303 303 303 303 302 301 301 301 301 301 301 300 299 299 299 299 299 299 298 298 298 298 298 299 299 299 299 299 297 295 294 293 293 293 293 292 291 290
304 303 303 303 303 303 302 302 301 301 301 300 300 300 300 299 299 298 298 297 297 297 297 297 297 297 298 298 297 297 296 296 295 294 293 293 292 292 292 291 290 289
303 303 303 303 302 302 301 300 300 300 300 300 299 299 298 298 298 298 297 297 296 296 296 296 296 296 296 296 296 296 295 295 294 293 292 292 292 292 291 291 289 288
303 303 302 302 302 301 300 300 300 299 299 299 298 298 297 297 297 297 297 296 296 295 295 295 295 295 295 295 295 295 295 294 293 293 292 291 291 291 290 290 289 288
302 302 302 302 301 300 300 299 299 299 298 298 297 297 296 296 296 296 296 295 295 295 294 294 295 295 294 294 293 294 294 293 292 291 291 290 290 289 289 288 288 287
301 301 301 301 300 300 299 299 298 298 298 298 297 296 296 295 295 295 295 295 295 294 294 294 294 295 294 293 293 292 292 291 291 291 290 289 289 289 288 288 287 287
299 299 299 300 300 299 299 299 298 298 298 297 296 296 296 295 295 295 294 294 294 294 294 294 294 294 294 293 292 291 291 290 291 290 289 288 288 288 288 287 287 287
296 297 298 298 298 299 299 299 298 298 298 297 296 296 295 295 294 294 293 293 293 293 294 294 293 294 293 292 291 291 290 290 290 289 288 287 287 286 286 286 285 285
295 295 296 297 297 298 298 298 298 298 297 296 295 295 295 294 294 293 293 293 293 293 293 293 292 292 292 291 291 290 290 289 289 289 287 287 286 285 285 284 284 284
Wind_Speed
33 33 33 32 31 30 29 30 30 32 34 35 37 39 40 39 38 38 38 38 39 40 41 41 42 42 42 42 43 43 42 43 43 43 43 43 44 44 43 43 44 44
33 33 33 32 31 30 30 30 31 32 33 35 36 38 39 40 40 40 40 39 39 40 41 41 42 41 42 42 42 42 42 42 43 43 43 43 44 45 44 44 44 44
33 34 34 34 32 31 31 30 31 32 33 34 36 37 38 40 41 40 41 41 41 40 40 41 41 42 42 43 42 42 42 43 44 43 43 43 44 46 45 44 45 44
33 34 34 34 33 32 31 30 32 33 34 35 36 37 38 38 38 39 41 43 42 41 40 40 41 41 42 43 42 42 43 43 43 43 43 44 45 47 46 44 45 44
33 33 34 34 33 32 31 31 32 33 34 34 34 35 37 37 36 38 41 43 43 42 41 41 41 42 42 43 42 42 42 42 42 42 43 43 45 46 46 45 44 43
32 33 33 33 33 33 33 33 33 34 34 34 34 36 37 37 38 40 41 43 44 44 42 42 42 42 43 43 43 42 42 42 42 42 43 43 44 44 45 45 45 44
32 33 33 33 34 34 34 34 33 35 35 35 36 38 39 39 40 40 41 42 44 44 44 43 43 44 44 44 43 43 43 43 42 43 43 43 43 44 45 45 45 44
32 33 32 33 34 34 35 34 33 34 36 36 37 38 38 39 39 39 40 41 42 43 44 44 44 44 45 44 44 43 43 43 43 43 43 42 42 43 45 46 45 43
32 32 32 33 34 35 35 35 34 34 35 36 38 37 37 37 38 38 39 40 41 42 43 44 44 44 45 45 44 43 43 43 43 44 43 42 42 43 45 46 44 43
32 32 33 34 35 36 36 35 34 34 35 36 37 36 36 38 39 40 40 40 41 42 44 44 45 45 45 45 44 44 44 44 44 44 44 44 44 44 45 46 46 44
33 33 34 35 35 36 36 36 35 35 36 36 37 37 38 39 40 41 40 40 41 42 44 45 45 45 45 45 45 45 44 44 44 45 46 46 46 46 46 46 46 45
34 34 35 35 35 36 36 35 35 36 36 37 38 39 40 41 42 41 41 41 41 41 43 45 46 45 45 45 46 45 44 44 44 44 45 46 46 47 46 47 46 45
35 35 35 35 35 35 35 35 36 36 37 38 38 39 41 42 42 43 42 42 41 42 43 44 45 45 45 45 45 45 45 44 44 44 44 44 45 46 46 46 47 46
35 35 34 34 34 34 34 35 36 36 37 38 38 40 42 43 43 43 43 42 43 43 43 44 44 44 44 45 45 45 44 44 44 45 44 44 44 44 45 46 47 48
34 34 33 32 33 34 34 35 35 36 36 37 38 41 42 43 43 43 42 42 43 43 43 43 43 44 45 45 45 45 44 44 44 44 44 44 44 44 45 46 47 48
32 32 31 31 32 34 35 36 36 36 36 37 39 40 41 42 42 41 42 43 43 43 43 42 43 45 46 46 45 45 45 45 44 44 45 44 44 44 44 45 47 48
31 31 30 31 32 34 35 36 36 36 36 38 39 40 41 41 40 41 42 43 43 43 43 43 44 45 46 46 46 46 46 45 45 45 45 45 44 44 44 45 46 47
30 30 30 31 33 34 35 35 35 36 37 38 40 40 41 40 40 41 42 42 43 43 43 44 45 46 46 46 47 47 47 47 46 45 45 44 44 44 44 45 45 46
28 29 30 32 33 34 34 34 34 36 38 39 40 40 40 39 40 42 42 42 42 43 44 45 44 45 46 46 46 47 47 47 46 45 45 45 46 46 46 45 45 45
27 28 30 32 33 33 33 33 34 37 38 39 40 39 38 40 41 42 42 43 43 43 43 44 44 44 45 46 47 48 47 47 47 46 45 45 46 47 47 46 46 46
27 28 30 31 32 32 32 34 36 37 38 38 38 38 39 40 41 42 43 44 44 43 43 43 43 44 44 46 47 48 48 48 48 46 44 44 44 45 46 46 46 47
28 29 30 31 31 31 32 34 36 36 37 37 37 37 38 39 40 41 42 43 43 43 43 43 45 44 44 46 47 47 47 48 47 45 44 43 43 42 42 43 43 44
29 29 30 31 31 31 33 35 35 36 36 36 35 36 37 38 40 41 41 41 42 43 43 45 46 45 45 46 46 46 47 47 45 44 43 43 42 42 43 43 43 44
29 29 30 31 31 32 34 34 34 35 36 35 35 36 38 39 39 39 40 40 41 43 44 46 46 46 45 46 46 46 46 46 44 42 42 42 42 42 43 44 44 45
28 28 29 30 31 32 33 34 34 35 34 34 34 36 37 37 36 37 38 39 40 42 43 44 45 45 44 44 45 45 46 45 42 38 38 38 38 37 38 40 41 42
28 28 28 29 30 32 32 33 33 33 33 32 33 34 35 36 35 35 37 38 38 39 41 42 44 43 42 41 43 44 45 44 42 39 38 37 36 36 37 38 38 38
Wind_Direction
235 233 232 230 230 231 232 231 230 229 230 228 224 221 219 218 218 216 216 216 216 216 214 213 212 210 209 210 210 210 210 211 212 213 212 212 213 214 214 214 215 214
235 234 233 231 232 233 233 233 232 231 232 233 231 225 221 220 219 218 219 220 218 216 215 214 214 214 213 213 212 212 212 213 214 214 214 214 215 214 216 218 217 216
236 235 233 233 233 234 234 234 234 234 235 237 236 230 225 222 221 220 221 222 219 217 215 214 215 215 214 214 213 213 213 213 216 216 216 216 215 215 218 220 219 217
237 237 236 236 236 235 236 235 235 234 233 235 236 234 228 224 224 226 224 222 219 218 217 216 216 216 216 215 214 214 214 215 216 216 216 216 217 217 219 220 219 218
239 239 239 239 238 236 236 235 234 232 230 232 237 238 233 228 229 232 228 223 220 219 219 218 218 218 217 216 215 214 215 216 216 216 216 217 218 219 220 220 219 219
241 241 240 240 240 237 236 236 236 233 232 234 237 239 236 233 233 234 230 225 222 221 220 219 218 218 217 216 216 216 217 217 217 217 217 218 219 219 219 220 220 220
242 242 242 241 240 238 237 237 237 235 235 236 236 236 235 235 235 235 232 227 224 222 222 220 218 217 217 216 216 218 219 219 219 219 218 219 218 217 217 219 220 220
245 245 243 242 240 239 238 238 237 236 235 234 234 234 236 236 237 237 236 232 227 225 223 221 219 218 217 216 216 218 220 221 221 220 219 218 217 216 216 217 217 217
247 246 244 242 241 239 238 237 237 237 235 233 233 234 237 239 241 241 239 236 232 229 225 222 220 220 218 217 216 218 220 221 221 220 218 216 215 215 214 214 214 214
248 246 244 243 241 240 239 238 238 237 236 235 234 236 238 241 243 242 240 237 234 231 226 222 221 220 219 219 219 220 221 220 221 220 218 216 215 215 214 213 212 211
249 247 245 244 242 242 241 240 239 238 237 236 236 238 242 242 242 240 238 236 234 231 227 224 223 221 220 220 221 222 222 221 221 221 219 218 217 217 215 213 212 211
250 248 246 245 244 244 243 241 240 239 239 239 238 239 242 242 240 239 237 236 235 233 231 228 226 224 222 222 222 222 222 222 222 222 221 219 218 218 217 216 214 213
253 251 249 248 247 247 246 243 241 240 239 240 241 240 239 239 238 238 238 237 236 235 233 231 228 226 224 223 223 222 222 221 221 222 221 220 219 218 218 219 218 216
257 255 252 251 250 249 248 245 242 241 240 240 241 240 239 238 238 238 238 237 237 236 235 233 229 227 225 224 223 223 222 221 221 221 221 220 220 220 220 220 220 219
261 258 255 253 251 250 249 247 244 242 241 240 241 241 240 240 239 239 238 237 237 236 236 234 231 229 228 226 224 223 222 221 221 221 221 220 220 220 220 220 219 218
263 260 257 254 252 250 249 248 245 243 241 240 241 241 241 241 240 239 239 238 238 236 235 233 231 231 230 228 226 224 222 222 221 221 221 220 219 218 218 219 219 219
265 262 259 256 254 253 251 249 246 243 242 241 241 241 241 240 239 239 239 238 238 237 236 234 233 233 232 231 229 227 225 223 222 222 221 220 219 218 217 218 218 218
269 265 262 259 257 255 252 250 247 244 242 241 240 240 240 239 238 239 239 238 237 237 236 236 236 235 233 232 230 228 226 224 223 221 220 220 219 218 218 218 217 217
273 268 264 262 261 258 255 251 247 244 243 242 241 240 239 238 238 239 239 238 237 237 237 237 237 236 234 233 231 228 226 224 222 221 221 220 220 219 219 218 217 216
278 271 268 266 264 261 256 252 248 246 245 243 242 241 238 237 238 238 238 238 238 237 238 238 238 237 236 234 231 229 227 225 224 222 222 222 221 220 219 218 217 215
285 277 273 270 266 262 257 253 250 248 247 245 243 241 239 239 238 238 238 238 238 238 238 239 238 238 237 235 233 230 227 225 224 222 221 223 223 222 220 219 217 216
291 283 277 273 269 262 258 254 252 250 248 247 245 242 241 241 240 239 239 238 238 238 238 239 240 238 237 236 234 231 227 224 223 222 221 222 223 222 221 220 218 217
297 289 282 277 271 263 259 257 254 253 251 249 245 243 242 241 241 241 240 239 239 238 237 239 240 239 238 236 233 230 227 223 221 220 220 220 222 221 220 220 219 218
301 294 287 280 273 267 263 261 259 256 254 251 247 245 244 244 243 243 242 241 240 239 238 240 241 241 239 236 233 230 226 223 221 220 219 219 219 219 219 218 218 218
304 298 290 283 277 272 268 266 263 261 259 255 250 248 247 247 246 244 244 243 241 241 241 241 243 243 240 237 234 231 226 224 222 220 220 219 217 216 217 217 217 216
309 303 295 288 282 278 275 271 268 265 261 257 253 250 249 248 247 245 246 246 244 243 243 242 243 244 242 239 236 233 228 223 221 220 220 219 216 214 213 213 212 212